sat.trackr.live / text

‹ back to catalog

OPTUS-X (ADS-01)

NORAD 62006 · 2024-212A

PAYLOAD ACTIVE UNKNOWN

§ Identity

Operator
Country
AUS
Launch date
2024-11-17
Launch site
AFETR
Launch vehicle
Mass (kg)
RCS (m²)

Purposes: comms

External: N2YO · Heavens-Above · Gunter

§ Orbital elements

Epoch: 2026-05-25T02:46:28.390368Z

Period
1,436.10 min
Inclination
0.0179°
Eccentricity
0.0001503
Mean motion
1.00271482 rev/d
Perigee alt
35,780.3 km
Apogee alt
35,793.0 km
Semi-major
42,164.8 km
B*
0.0000e+0
RAAN
303.2729°
Arg perigee
153.3911°
Mean anomaly
344.0606°
Rev number
552

§ Raw data

OPTUS-X (ADS-01)1 62006U 24212A   26145.11560637 -.00000146  00000+0  00000+0 0  99922 62006   0.0179 303.2729 0001503 153.3911 344.0606  1.00271482  5521

JSON: /api/v1/satellites/62006 · /tle

For live sub-satellite position, see the globe view (requires WebGL).

§ Visibility from observer

Set your observer location to see the next 7 days of passes ≥ 10°. The values pass through the URL so the page stays shareable.

No JS? Fill the form by hand. The geolocation button needs JavaScript.